Location: Allaines
(49.9632°N, 2.9458°E)
Time: 23:49:35
(UTC+00:00)

Meteor 2-3 Rocket - Pass Details

Date: 09 April 2020
Orbit: 842 x 885 km, 81.2° (Epoch: 03 June)

Event Time Altitude Azimuth Distance (km) Brightness Sun altitude
Rises 21:46:45 0° 347° (NNW) 3,483 8.0 -26.2°
Reaches altitude 10° 21:49:13 10° 347° (NNW) 2,535 7.1 -26.4°
Maximum altitude 21:55:00 85° 260° (W) 876 3.6 -26.9°
Enters shadow 21:55:25 77° 191° (S) 892 3.6 -26.9°
